DMSP 5D-2 F13 DEB

Satellite information

Favourite Embed

Satellite Type and Status

DEBRISIN ORBIT

Key statistics

Satellite DMSP 5D-2 F13 DEB at a glance.

Uptime

11125

Days in orbit

Revolutions

≈ 14.2

Per day

Orbit

SSO

Sun Synchronous Orbit

Inclination

99.0

Latest

Satellite identification and parameters

Extended collection of information and parameters for DMSP 5D-2 F13 DEB.

Object identification

Identified? True

Debris? True

Object name: DMSP 5D-2 F13 DEB

International designator: 1995-015BA

Object number (NORAD): 40448

Object ID (CCSDS): 40448

Country: UNITED STATES OF AMERICA (US)

Current information (Y/N): Y

RCS size: SMALL

Orbital parameters

Period: 101.153 minutes

Inclination: 98.9677 deg

SMA: 7191.391 km

Apoapsis: 841.257 km

Periapsis: 785.255 km

RAAN: 244.8812 deg

Eccentricy: 0.00389368

Argument of periapsis: 141.0765 deg

Mean anomaly: 219.3227 deg

Mean motion: 14.23584915 rev/day

Mean motion (dot): 0.00005251 rev/day2

B* drag term: 0.002306053 1/REarth

Two-line elements (TLE)

Creation date: Sept. 7, 2025, 3:09 a.m.

Reference frame: TEME

Reference center: EARTH

Epoch: Sept. 6, 2025, 11 a.m. UTC

TLE line 0: 0 DMSP 5D-2 F13 DEB

TLE line 1: 1 40448U 95015BA 25249.45886122 .00005251 00000-0 23061-2 0 9995

TLE line 2: 2 40448 98.9677 244.8812 0038937 141.0765 219.3227 14.23584915541111

Live tracking on map

Real-time ground track for satellite DMSP 5D-2 F13 DEB.

In-orbit conjunctions

A list of the most updated potential collisions computed for object DMSP 5D-2 F13 DEB.

Target Orbit TCA Probability of collision Miss distance Type
METEOR 1-17 LEO 2024-11-24 01:11:45 0.004355709 62.0 (m) PAYLOAD
CZ-6A DEB LEO 2024-11-09 22:11:07 0.000218788 447.0 (m) DEBRIS
FENGYUN 1C DEB SSO 2024-06-02 03:12:29 0.0002392384 202.0 (m) DEBRIS

Associated space launch

Military meteorological satellite

DMSP 5D-2 F13 DEB was lifted into orbit during the mission ‘Atlas E | DMSP-5D2 F13’, on board a Atlas E space rocket.

The launch took place on March 24, 1995, 2:05 p.m. from Space Launch Complex 3W.

For more information about the launch, click the button.

Launch to space Atlas E | DMSP-5D2 F13
Atlas E | DMSP-5D2 F13

Agency: N/A

Status: Launch Successful

Launch date: March 24, 1995, 2:05 p.m. UTC

Rocket: Atlas E

Launch pad: Space Launch Complex 3W

Location: Vandenberg SFB, CA, USA

...

Latest news about this satellite

There are no fresh news available about this satellite. Check back as we update our databases every day.


Newsletter sign-up

Weekly statistics, charts and insights to help you stay on top of the space industry.